Dewpoint
47 60 63 64 64 64 64 63 62 59 55 53 53 52 51 49 48 46 45 44 43 43 43 42 41 40 38 38 37 36 34 35 33 31 33 32 30 30 30 32 32 32 32
54 59 63 64 64 64 63 62 59 57 55 54 52 49 48 47 46 46 44 43 42 41 41 40 39 38 37 37 36 34 33 32 30 27 28 29 29 30 31 31 30 30 31
61 62 64 64 64 63 61 59 56 54 53 51 49 48 46 46 45 44 44 43 42 42 41 40 39 38 37 36 34 33 31 30 30 28 28 29 29 30 30 32 31 32 30
64 64 64 64 63 62 59 57 55 55 52 49 49 48 46 45 44 44 44 43 42 41 41 40 39 38 36 35 33 32 31 30 29 28 28 28 29 30 31 30 29 30 29
62 63 63 61 60 58 56 55 54 52 51 49 48 47 46 46 44 44 43 41 40 40 39 39 38 38 37 35 33 32 30 29 29 28 27 28 28 29 29 29 30 30 30
59 61 61 58 58 57 55 54 52 52 49 48 48 47 46 44 41 40 40 40 40 39 37 37 38 38 36 34 33 32 31 29 28 27 27 28 28 30 31 31 31 27 27
57 58 58 58 57 55 54 53 51 48 49 48 47 46 44 42 39 39 39 40 39 37 36 36 37 35 35 33 33 32 31 31 29 30 28 28 30 31 32 30 30 29 28
55 56 56 55 54 54 53 51 49 48 48 47 46 45 42 41 39 39 38 39 38 37 36 36 35 34 33 33 32 30 29 30 30 30 30 31 32 33 34 32 31 31 31
53 55 55 54 53 52 51 49 48 47 46 45 44 42 41 39 38 37 38 38 37 36 36 36 34 32 33 33 31 30 28 28 29 31 33 34 34 33 33 30 28 28 27
47 51 54 53 52 50 49 48 47 47 45 43 42 42 39 40 38 37 37 37 35 34 34 34 33 32 32 32 30 29 27 27 28 28 30 30 30 31 30 30 30 28 28
43 47 53 52 51 50 48 47 46 45 43 41 41 40 40 39 38 37 37 35 34 33 33 32 32 32 32 32 32 30 29 29 27 27 28 28 28 29 29 29 30 30 29
43 45 51 52 50 48 46 46 44 43 41 40 38 38 38 38 37 36 36 35 34 32 31 32 31 32 32 32 31 30 31 29 28 28 29 28 28 28 29 29 28 29 30
42 46 48 48 48 46 45 44 43 42 40 38 37 35 35 36 36 35 34 34 32 32 32 31 31 32 31 30 30 29 28 28 29 28 27 27 28 30 31 28 30 32 30
43 41 44 45 44 44 44 43 41 40 38 37 36 34 34 34 34 33 33 33 32 32 30 30 30 29 28 28 28 28 29 28 28 27 28 29 29 29 28 28 28 29 28
39 38 39 39 41 41 40 41 39 39 38 37 36 34 33 32 32 33 32 32 31 30 29 28 28 27 27 27 27 27 28 27 27 28 28 28 28 28 28 28 26 26 26
38 37 40 39 38 38 37 35 35 35 35 35 35 35 34 33 32 33 33 32 31 29 28 27 26 26 26 26 26 25 26 26 27 28 28 28 27 27 27 27 27 26 27
37 38 39 38 37 36 35 35 33 34 35 34 34 34 33 33 33 33 33 32 30 29 27 27 27 25 25 25 25 25 25 25 27 28 27 27 28 27 27 26 26 25 25
35 34 36 35 35 35 35 34 34 33 32 32 34 34 33 33 33 33 32 30 28 28 26 26 26 25 25 25 25 24 25 24 25 27 28 27 28 27 27 25 26 25 25
34 34 34 34 34 34 34 34 33 32 32 31 31 32 32 33 33 32 30 27 26 26 25 26 26 26 25 25 25 23 23 22 22 25 26 27 27 27 25 25 26 25 22
32 32 32 32 32 32 33 32 32 32 32 32 32 31 32 32 30 29 28 25 26 26 26 26 25 26 26 25 23 25 25 23 24 25 23 24 27 27 26 25 26 25 23
32 32 32 32 32 32 32 32 32 32 32 31 30 32 32 32 30 29 26 25 25 26 26 26 26 25 25 25 25 26 25 25 24 24 23 21 21 25 26 26 26 26 23
32 32 32 32 32 32 32 32 32 31 30 28 27 28 29 28 28 27 26 26 26 27 28 28 27 26 27 26 26 26 25 24 23 23 20 18 19 21 23 25 26 26 24
33 32 32 32 32 32 32 32 31 31 29 29 27 26 26 26 26 26 26 27 28 28 28 28 28 26 26 27 27 27 25 24 21 20 20 20 18 19 18 20 24 25 25
32 32 31 31 31 31 30 30 29 29 28 28 28 27 26 27 28 28 28 29 30 31 31 29 29 27 26 28 27 25 25 23 21 19 19 20 19 15 16 17 20 24 25
30 29 29 29 28 28 28 28 28 27 27 28 27 28 29 30 30 30 30 31 32 31 30 30 29 27 27 26 25 25 24 22 19 17 18 17 17 16 13 15 17 23 25
23 23 23 23 23 24 24 24 25 25 25 25 25 25 26 26 26 26 26 26 26 25 25 26 25 24 25 23 23 21 24 21 18 14 18 17 14 13 12 12 11 16 18
Lifted_Index
0 -0 -1 -2 -3 -3 -4 -4 -5 -5 -5 -4 -3 -3 -2 -2 -2 -1 2 5 7 10 13 14 15 15 15 14 13 14 17 18 18 18 18 19 19 19 20 20 20 20 20
-1 -1 -2 -3 -3 -3 -4 -4 -5 -5 -5 -4 -3 -3 -2 -2 -1 1 4 7 9 12 13 15 15 15 13 12 12 13 17 19 18 18 18 19 19 19 19 19 19 19 19
-3 -3 -3 -4 -4 -4 -4 -4 -5 -5 -5 -4 -3 -3 -2 -2 -1 2 6 9 11 13 14 15 15 13 12 11 12 15 19 20 19 18 18 18 19 19 19 19 18 18 18
-4 -4 -4 -4 -4 -5 -5 -5 -5 -5 -5 -4 -4 -3 -3 -2 -0 3 6 8 11 13 15 15 14 12 11 12 14 17 20 20 19 18 18 18 18 19 18 18 18 18 18
-4 -4 -5 -5 -5 -5 -5 -5 -5 -5 -5 -4 -3 -3 -2 -1 0 3 5 7 9 12 14 14 13 12 13 15 18 20 20 20 19 18 17 17 18 18 18 18 17 17 17
-2 -3 -4 -5 -5 -5 -5 -5 -5 -4 -4 -3 -3 -2 -2 -1 2 4 6 7 10 12 13 13 12 12 14 17 20 21 21 20 19 18 17 17 17 18 18 18 17 17 17
-1 -2 -3 -4 -4 -5 -4 -4 -4 -3 -3 -2 -2 -2 -2 0 4 6 8 9 11 12 13 12 12 13 15 18 20 21 21 20 20 19 18 17 18 18 18 18 18 17 16
-0 -0 -1 -1 -2 -3 -3 -3 -3 -2 -2 -2 -1 -2 -1 1 4 7 9 10 12 13 12 12 12 14 17 19 20 21 21 21 20 20 19 19 19 19 19 18 18 17 15
1 1 1 0 -0 -1 -2 -2 -2 -2 -1 -1 -1 -1 -1 2 5 7 9 11 12 12 12 13 14 16 19 20 21 20 20 20 20 20 20 19 19 20 20 19 18 16 14
2 2 2 2 1 0 -0 -1 -1 -1 -1 -1 -1 -0 1 3 6 8 10 11 12 12 12 14 16 18 20 21 21 20 19 19 20 20 19 19 19 19 20 19 17 15 14
4 3 2 1 1 1 0 -0 -0 -1 -1 -1 -1 1 3 5 8 10 11 12 12 12 13 16 18 20 21 21 21 21 20 20 20 19 19 19 18 18 18 18 17 16 15
3 3 1 1 1 1 1 0 -0 -1 -1 -1 -1 1 5 8 10 11 12 13 13 14 16 18 20 21 21 21 22 21 20 20 19 19 18 18 18 17 17 17 17 17 16
2 1 1 1 1 1 1 1 -0 -1 -1 -1 -0 2 5 9 11 13 13 14 16 17 18 20 21 21 21 21 21 21 20 19 19 18 18 18 17 17 17 17 16 16 16
2 1 0 1 1 1 1 1 1 0 -0 -0 0 2 6 9 12 13 14 16 18 19 20 21 21 20 20 21 20 20 19 19 19 18 18 18 17 17 17 16 15 14 14
2 2 1 1 2 1 1 2 3 3 3 3 3 5 7 10 12 14 15 16 18 19 20 20 19 19 19 19 19 19 19 19 19 18 18 18 18 17 17 16 15 13 13
3 3 3 3 2 2 2 3 5 7 7 7 8 8 10 11 13 14 16 17 18 19 19 18 18 18 18 18 18 18 18 18 19 18 18 18 18 17 16 16 14 13 13
3 4 5 5 4 4 4 4 6 8 10 10 10 11 12 13 14 16 17 18 19 19 18 17 17 17 18 17 17 18 18 18 18 18 18 18 18 17 16 15 14 13 12
5 5 6 7 6 6 6 6 7 9 10 11 11 12 13 15 16 17 18 18 18 18 17 16 17 17 17 17 17 17 17 17 18 18 18 18 18 17 16 15 14 13 12
7 7 8 9 8 8 8 9 9 10 10 11 12 14 15 16 17 17 18 17 17 17 16 16 16 16 16 16 17 17 17 17 17 17 17 18 18 17 16 15 14 13 13
9 9 10 10 10 10 10 10 10 11 11 12 13 15 16 16 16 17 17 17 16 16 16 16 16 16 16 16 16 16 16 16 17 17 17 17 17 17 16 16 14 13 13
10 11 11 11 11 11 11 11 11 12 12 13 14 15 16 16 16 16 16 16 16 16 16 16 16 16 15 15 15 16 16 16 16 17 17 17 17 17 16 16 15 14 13
12 12 12 12 12 12 12 12 12 12 13 13 14 15 15 15 16 16 16 16 16 16 16 16 15 15 15 15 16 16 16 16 17 17 17 17 16 16 16 16 15 14 13
13 13 13 13 13 13 13 13 13 13 13 14 14 15 15 15 16 16 16 16 16 16 16 15 15 15 16 16 16 16 16 17 17 17 17 16 16 16 16 16 15 14 14
13 13 13 13 13 13 13 13 14 14 14 15 15 15 15 16 16 16 16 16 15 15 15 15 15 15 16 16 16 16 16 17 17 17 17 16 16 16 16 16 15 15 14
14 13 13 13 13 14 14 14 15 15 15 15 16 16 16 16 16 16 15 15 15 15 15 15 15 15 16 16 16 16 16 16 16 16 16 16 16 16 16 16 16 15 15
15 14 14 14 14 15 15 15 15 16 16 16 16 16 16 16 15 15 15 15 15 15 15 15 16 16 16 17 17 16 16 16 16 16 16 16 16 16 16 16 16 16 15